This is the latest recevied weather packets stored in our database for station/object W8KHW. If no packets are shown the sender has not sent any weather packets the latest 10 day(s).
| Time | Temp. | Humidity | Pressure | Rain* | Wind** | Luminosity | Snow |
|---|---|---|---|---|---|---|---|
| 1777770403 | 6.67° C | 61% | 1018.3 hPa | 0 mm | - | - | - |
| 1777769903 | 6.67° C | 60% | 1018.2 hPa | 0 mm | - | - | - |
| 1777769403 | 7.22° C | 60% | 1018 hPa | 0 mm | - | - | - |
| 1777768902 | 7.22° C | 57% | 1018.2 hPa | 0 mm | - | - | - |
| 1777768410 | 7.22° C | 57% | 1018.1 hPa | 0 mm | - | - | - |
| 1777767902 | 7.22° C | 57% | 1018.1 hPa | 0 mm | - | - | - |
| 1777767402 | 7.22° C | 59% | 1018 hPa | 0 mm | - | - | - |
| 1777766901 | 7.22° C | 56% | 1018 hPa | 0 mm | - | - | - |
| 1777766401 | 7.78° C | 55% | 1017.8 hPa | 0 mm | - | - | - |
| 1777765901 | 7.78° C | 55% | 1017.7 hPa | 0 mm | - | - | - |
| 1777765401 | 7.78° C | 53% | 1017.9 hPa | 0 mm | - | - | - |
| 1777764901 | 7.78° C | 55% | 1018 hPa | 0 mm | - | - | - |
| 1777764400 | 7.78° C | 53% | 1017.8 hPa | 0 mm | - | - | - |
| 1777763900 | 7.78° C | 54% | 1017.8 hPa | 0 mm | - | - | - |
| 1777763400 | 7.78° C | 51% | 1017.7 hPa | 0 mm | - | - | - |
| 1777762900 | 8.33° C | 57% | 1017.8 hPa | 0 mm | - | - | - |
| 1777762399 | 7.78° C | 54% | 1017.7 hPa | 0 mm | - | - | - |
| 1777761899 | 8.33° C | 52% | 1017.8 hPa | 0 mm | - | - | - |
| 1777761399 | 8.33° C | 50% | 1017.4 hPa | 0 mm | - | - | - |
| 1777760899 | 8.33° C | 52% | 1017.7 hPa | 0 mm | - | - | - |
| 1777760399 | 8.89° C | 52% | 1017.8 hPa | 0 mm | - | - | - |
| 1777759898 | 8.33° C | 51% | 1017.7 hPa | 0 mm | - | - | - |
| 1777759398 | 8.89° C | 50% | 1017.6 hPa | 0 mm | - | - | - |
| 1777758907 | 8.33° C | 48% | 1017.5 hPa | 0 mm | - | - | - |
| 1777758398 | 8.89° C | 49% | 1017.6 hPa | 0 mm | - | - | - |
* Rain latest hour (hover to see other rain measurements)
** Current wind speed in m/s (hover to see current wind gust speed)